Time,TemperatureF,DewpointF,PressureIn,WindDirection,WindDirectionDegrees,WindSpeedMPH,WindSpeedGustMPH,Humidity,HourlyPrecipIn,Conditions,Clouds,dailyrainin,SoftwareType,DateUTC
2013-01-03 05:14:00,36.1,31.5,30.35,WSW,248,1.3,0.0,83,0.00,,,-99.99,open3600,2013-01-03 04:14:00,
2013-01-03 05:30:00,33.3,30.0,30.32,WSW,248,1.5,0.0,88,0.00,,,-99.99,open3600,2013-01-03 04:30:00,
2013-01-03 05:46:00,33.4,30.2,30.32,WSW,248,4.6,13.0,88,0.00,,,-99.99,open3600,2013-01-03 04:46:00,
2013-01-03 06:02:00,33.4,30.2,30.32,WSW,248,4.2,-999.0,88,-99.99,,,-99.99,open3600,2013-01-03 05:02:00,
2013-01-03 06:17:00,33.4,30.2,30.32,SW,225,2.7,10.0,88,-99.99,,,-99.99,open3600,2013-01-03 05:17:00,
2013-01-03 06:33:00,33.4,30.2,30.32,South,180,2.1,0.0,88,-99.99,,,-99.99,open3600,2013-01-03 05:33:00,
2013-01-03 06:48:00,33.4,30.2,30.31,SW,225,2.5,14.0,88,-99.99,,,-99.99,open3600,2013-01-03 05:48:00,
2013-01-03 07:04:00,33.6,30.4,30.30,SW,225,1.6,11.0,88,0.00,,,-99.99,open3600,2013-01-03 06:04:00,
2013-01-03 07:19:00,34.0,30.7,30.31,WSW,248,2.7,8.0,88,0.00,,,-99.99,open3600,2013-01-03 06:19:00,
2013-01-03 07:36:00,34.3,31.1,30.30,SE,135,3.7,9.0,88,0.00,,,-99.99,open3600,2013-01-03 06:36:00,
2013-01-03 07:51:00,34.5,31.1,30.30,SW,225,2.8,11.0,87,0.00,,,-99.99,open3600,2013-01-03 06:51:00,
2013-01-03 08:08:00,34.7,31.3,30.30,West,270,2.8,8.0,87,0.00,,,-99.99,open3600,2013-01-03 07:08:00,
2013-01-03 08:24:00,34.7,31.3,30.29,WSW,248,2.4,6.0,87,0.00,,,-99.99,open3600,2013-01-03 07:24:00,
2013-01-03 08:39:00,35.1,31.6,30.30,West,270,3.0,13.0,87,0.00,,,-99.99,open3600,2013-01-03 07:39:00,
2013-01-03 08:55:00,35.2,31.8,30.30,SW,225,3.8,14.0,87,0.00,,,-99.99,open3600,2013-01-03 07:55:00,
2013-01-03 09:12:00,35.2,32.0,30.31,SW,225,2.5,15.0,88,0.00,,,-99.99,open3600,2013-01-03 08:12:00,
2013-01-03 09:28:00,35.2,32.0,30.31,South,180,1.6,8.0,88,0.00,,,-99.99,open3600,2013-01-03 08:28:00,
2013-01-03 09:43:00,35.2,32.4,30.31,WSW,248,1.6,12.0,89,0.00,,,-99.99,open3600,2013-01-03 08:43:00,
2013-01-03 10:00:00,35.2,32.5,30.31,WSW,248,0.7,8.0,90,0.00,,,-99.99,open3600,2013-01-03 09:00:00,
2013-01-03 10:16:00,35.1,32.4,30.31,SW,225,0.0,0.0,90,0.02,,,-99.99,open3600,2013-01-03 09:16:00,
2013-01-03 10:31:00,34.9,32.2,30.31,WSW,248,0.6,0.0,90,0.02,,,-99.99,open3600,2013-01-03 09:31:00,
2013-01-03 10:47:00,35.2,32.9,30.31,WSW,248,0.8,0.0,91,0.02,,,-99.99,open3600,2013-01-03 09:47:00,
2013-01-03 11:02:00,35.2,32.9,30.31,WSW,248,2.3,6.0,91,0.02,,,-99.99,open3600,2013-01-03 10:02:00,
2013-01-03 11:18:00,35.2,32.9,30.30,WSW,248,2.0,13.0,91,0.02,,,-99.99,open3600,2013-01-03 10:18:00,
2013-01-03 11:33:00,35.4,33.1,30.30,WSW,248,1.2,0.0,91,0.02,,,-99.99,open3600,2013-01-03 10:33:00,
2013-01-03 11:49:00,35.4,33.1,30.30,SW,225,1.8,17.0,91,0.02,,,-99.99,open3600,2013-01-03 10:49:00,
2013-01-03 12:05:00,35.8,33.4,30.30,SSW,202,2.1,11.0,91,0.00,,,-99.99,open3600,2013-01-03 11:05:00,
2013-01-03 12:21:00,36.1,33.8,30.31,SW,225,0.9,0.0,91,0.00,,,-99.99,open3600,2013-01-03 11:21:00,
2013-01-03 12:36:00,36.1,33.8,30.30,West,270,0.8,8.0,91,0.00,,,-99.99,open3600,2013-01-03 11:36:00,
2013-01-03 12:52:00,36.3,34.0,30.29,WSW,248,0.4,9.0,91,0.00,,,-99.99,open3600,2013-01-03 11:52:00,
2013-01-03 13:08:00,36.7,34.3,30.29,WSW,248,0.0,0.0,91,0.00,,,-99.99,open3600,2013-01-03 12:08:00,
2013-01-03 13:23:00,37.0,34.7,30.29,NW,315,0.8,12.0,91,0.00,,,-99.99,open3600,2013-01-03 12:23:00,
2013-01-03 13:39:00,37.2,34.9,30.29,WSW,248,1.3,17.0,91,0.00,,,-99.99,open3600,2013-01-03 12:39:00,
2013-01-03 13:54:00,37.2,34.9,30.29,SW,225,0.1,0.0,91,0.00,,,-99.99,open3600,2013-01-03 12:54:00,
2013-01-03 14:10:00,37.6,35.2,30.30,SW,225,0.2,9.0,91,0.00,,,-99.99,open3600,2013-01-03 13:10:00,
2013-01-03 14:26:00,37.6,35.2,30.30,SSW,202,0.1,0.0,91,0.00,,,-99.99,open3600,2013-01-03 13:26:00,
2013-01-03 14:41:00,37.6,35.2,30.31,WSW,248,0.1,0.0,91,0.00,,,-99.99,open3600,2013-01-03 13:41:00,
2013-01-03 14:58:00,37.8,35.4,30.31,SW,225,0.0,0.0,91,0.00,,,-99.99,open3600,2013-01-03 13:58:00,
2013-01-03 15:14:00,37.9,35.6,30.32,West,270,0.0,0.0,91,0.00,,,-99.99,open3600,2013-01-03 14:14:00,
2013-01-03 15:29:00,38.1,35.8,30.32,SSW,202,0.8,0.0,91,0.00,,,-99.99,open3600,2013-01-03 14:29:00,
2013-01-03 15:45:00,38.3,36.0,30.32,SW,225,0.0,0.0,91,0.00,,,-99.99,open3600,2013-01-03 14:45:00,
2013-01-03 16:00:00,38.5,36.1,30.32,West,270,0.4,0.0,91,0.00,,,-99.99,open3600,2013-01-03 15:00:00,
2013-01-03 16:16:00,38.8,36.5,30.32,WSW,248,0.4,0.0,91,0.00,,,-99.99,open3600,2013-01-03 15:16:00,
2013-01-03 16:31:00,38.8,36.1,30.33,WSW,248,0.0,0.0,90,0.00,,,-99.99,open3600,2013-01-03 15:31:00,
2013-01-03 16:48:00,38.8,36.1,30.33,SSW,202,0.0,0.0,90,0.00,,,-99.99,open3600,2013-01-03 15:48:00,
2013-01-03 17:03:00,39.0,36.3,30.34,WSW,248,0.0,0.0,90,0.00,,,-99.99,open3600,2013-01-03 16:03:00,
2013-01-03 17:19:00,39.4,36.7,30.34,South,180,0.5,14.0,90,0.00,,,-99.99,open3600,2013-01-03 16:19:00,
2013-01-03 17:34:00,39.4,36.7,30.34,WSW,248,0.4,7.0,90,0.00,,,-99.99,open3600,2013-01-03 16:34:00,
2013-01-03 17:50:00,39.4,36.7,30.34,WSW,248,0.9,16.0,90,0.00,,,-99.99,open3600,2013-01-03 16:50:00,
2013-01-03 18:06:00,39.0,36.3,30.34,WSW,248,1.1,9.0,90,0.00,,,-99.99,open3600,2013-01-03 17:06:00,
2013-01-03 18:21:00,39.0,36.3,30.34,WSW,248,1.8,12.0,90,0.00,,,-99.99,open3600,2013-01-03 17:21:00,
2013-01-03 18:37:00,39.0,36.3,30.34,SW,225,0.6,14.0,90,0.00,,,-99.99,open3600,2013-01-03 17:37:00,
2013-01-03 18:53:00,39.0,36.7,30.35,West,270,0.3,0.0,91,0.00,,,-99.99,open3600,2013-01-03 17:53:00,
2013-01-03 19:08:00,39.0,36.7,30.35,West,270,0.7,8.0,91,0.00,,,-99.99,open3600,2013-01-03 18:08:00,
2013-01-03 19:24:00,39.0,36.7,30.36,SW,225,0.0,0.0,91,0.00,,,-99.99,open3600,2013-01-03 18:24:00,
2013-01-03 19:39:00,39.0,36.7,30.36,West,270,0.0,0.0,91,0.00,,,-99.99,open3600,2013-01-03 18:39:00,
2013-01-03 19:55:00,39.2,36.9,30.36,West,270,0.1,0.0,91,0.00,,,-99.99,open3600,2013-01-03 18:55:00,
2013-01-03 20:11:00,39.4,37.0,30.36,West,270,0.0,0.0,91,0.00,,,-99.99,open3600,2013-01-03 19:11:00,
2013-01-03 22:17:00,41.2,38.5,30.35,South,180,0.5,0.0,90,0.00,,,-99.99,open3600,2013-01-03 21:17:00,
2013-01-03 22:33:00,41.2,38.8,30.35,West,270,1.0,9.0,91,0.00,,,-99.99,open3600,2013-01-03 21:33:00,
2013-01-03 22:49:00,41.2,38.8,30.35,SSW,202,0.0,0.0,91,0.00,,,-99.99,open3600,2013-01-03 21:49:00,
2013-01-03 23:04:00,41.4,39.0,30.35,WNW,292,0.3,0.0,91,0.00,,,-99.99,open3600,2013-01-03 22:04:00,
2013-01-03 23:20:00,41.5,39.2,30.35,West,270,0.2,0.0,91,0.00,,,-99.99,open3600,2013-01-03 22:20:00,
2013-01-03 23:35:00,41.7,39.0,30.35,WSW,248,0.0,0.0,90,0.00,,,-99.99,open3600,2013-01-03 22:35:00,
2013-01-03 23:51:00,42.1,39.4,30.35,South,180,0.0,0.0,90,0.00,,,-99.99,open3600,2013-01-03 22:51:00,